Weather History for Elmira, NY

Change the Weather History Date:

Sunday, November 11, 2012

  Actual Average Record
Temperature  
Mean Temperature 54 °F -  
Max Temperature 72 °F 49 °F 72 °F (1949)
Min Temperature 37 °F 32 °F 17 °F (1961)
Degree Days  
Heating Degree Days 10    
Growing Degree Days 4 (Base 50)    
Moisture  
Dew Point 37 °F    
Average Humidity 61    
Maximum Humidity 93    
Minimum Humidity 30    
Precipitation  
Precipitation 0.00 in - - ()
Sea Level Pressure  
Sea Level Pressure 30.32 in    
Wind  
Wind Speed 1 mph (SW)    
Max Wind Speed 10 mph    
Max Gust Speed -    
Visibility 9 miles    
Events      
Averages and records for this station are not official NWS values.
T = Trace of Precipitation, MM = Missing Value Source: NWS Daily Summary

Daily Weather History Graph

Daily Weather History Graph

Search for Another Location

Airport:

Trip Planner

Search our weather history database for the weather conditions in past years. The results will help you decide how hot, cold, wet, or windy it might be!

Date:

Astronomy

Nov. 11, 2012 Rise Set
Actual Time 6:53 AM EST 4:49 PM EST
Civil Twilight 6:23 AM EST 5:19 PM EST
Nautical Twilight 5:49 AM EST 5:52 PM EST
Astronomical Twilight 5:17 AM EST 6:25 PM EST
Moon 4:02 AM EST (11/11) 3:13 PM EST (11/11)
Length of Visible Light 10h 55m
Length of Day
9h 55m
Waning Crescent, 7% of the Moon is Illuminated
Nov 11
Waning Crescent
Nov 13
New
Nov 20
First Quarter
Nov 28
Full
Dec 6
Last Quarter

Hourly Weather History & Observations

Time (EST) Temp. Dew Point Humidity Pressure Visibility Wind Dir Wind Speed Gust Speed Precip Events Conditions
12:53 AM 43.0 °F 39.0 °F 86% 30.29 in 9.0 mi Calm Calm - N/A   Overcast
1:53 AM 44.1 °F 39.0 °F 82% 30.30 in 9.0 mi Calm Calm - N/A   Overcast
2:53 AM 44.1 °F 39.0 °F 82% 30.30 in 9.0 mi Calm Calm - N/A   Overcast
3:53 AM 45.0 °F 39.0 °F 80% 30.30 in 10.0 mi Calm Calm - N/A   Overcast
4:53 AM 43.0 °F 37.9 °F 82% 30.31 in 9.0 mi Calm Calm - N/A   Clear
5:53 AM 37.9 °F 36.0 °F 93% 30.33 in 7.0 mi Calm Calm - N/A   Clear
6:53 AM 37.9 °F 34.0 °F 86% 30.36 in 7.0 mi Calm Calm - N/A   Clear
7:53 AM 37.9 °F 35.1 °F 89% 30.38 in 6.0 mi Calm Calm - N/A   Clear
8:53 AM 50.0 °F 41.0 °F 71% 30.38 in 10.0 mi Calm Calm - N/A   Mostly Cloudy
9:53 AM 54.0 °F 39.9 °F 59% 30.38 in 10.0 mi Calm Calm - N/A   Partly Cloudy
10:53 AM 59.0 °F 37.9 °F 46% 30.36 in 10.0 mi Calm Calm - N/A   Clear
1:53 PM 72.0 °F 39.0 °F 30% 30.28 in 10.0 mi SSW 9.2 mph - N/A   Clear
2:53 PM 70.0 °F 37.9 °F 31% 30.27 in 10.0 mi SSW 10.4 mph - N/A   Clear
3:53 PM 66.9 °F 39.0 °F 36% 30.29 in 10.0 mi South 9.2 mph - N/A   Clear
4:53 PM 63.0 °F 37.0 °F 38% 30.31 in 10.0 mi Calm Calm - N/A   Clear
5:53 PM 59.0 °F 34.0 °F 39% 30.33 in 10.0 mi Calm Calm - N/A   Clear
6:53 PM 57.0 °F 34.0 °F 42% 30.34 in 10.0 mi SSW 3.5 mph - N/A   Clear
7:53 PM 57.0 °F 34.0 °F 42% 30.34 in 10.0 mi Calm Calm - N/A   Clear
8:53 PM 51.1 °F 36.0 °F 56% 30.34 in 10.0 mi Calm Calm - N/A   Clear
9:53 PM 55.0 °F 37.9 °F 53% 30.33 in 10.0 mi West 3.5 mph - N/A   Clear
10:53 PM 53.1 °F 37.9 °F 57% 30.32 in 10.0 mi Calm Calm - N/A   Clear
11:53 PM 50.0 °F 37.9 °F 63% 30.31 in 10.0 mi Calm Calm - N/A   Clear